This is the latest recevied weather packets stored in our database for station/object LU8FJH-13. If no packets are shown the sender has not sent any weather packets the latest 10 day(s).
| Time | Temp. | Humidity | Pressure | Rain* | Wind** | Luminosity | Snow |
|---|---|---|---|---|---|---|---|
| 1777765735 | 12.78° C | 31% | 1026.6 hPa | 0 mm | - | - | - |
| 1777765195 | 12.78° C | 31% | 1026.5 hPa | 0 mm | - | - | - |
| 1777764656 | 12.78° C | 31% | 1026.7 hPa | 0 mm | - | - | - |
| 1777764116 | 12.78° C | 32% | 1026.6 hPa | 0 mm | - | - | - |
| 1777763575 | 13.33° C | 32% | 1026.6 hPa | 0 mm | - | - | - |
| 1777763036 | 13.33° C | 32% | 1026.7 hPa | 0 mm | - | - | - |
| 1777762496 | 13.33° C | 31% | 1026.5 hPa | 0 mm | - | - | - |
| 1777761956 | 13.89° C | 30% | 1026.5 hPa | 0 mm | - | - | - |
| 1777761416 | 13.89° C | 29% | 1026.2 hPa | 0 mm | - | - | - |
| 1777760875 | 14.44° C | 27% | 1026.4 hPa | 0 mm | - | - | - |
| 1777760335 | 14.44° C | 25% | 1026.2 hPa | 0 mm | - | - | - |
| 1777759796 | 14.44° C | 24% | 1026.1 hPa | 0 mm | - | - | - |
| 1777759255 | 15° C | 24% | 1025.9 hPa | 0 mm | - | - | - |
| 1777758716 | 15° C | 23% | 1026 hPa | 0 mm | - | - | - |
| 1777758175 | 15.56° C | 22% | 1026 hPa | 0 mm | - | - | - |
| 1777757635 | 15.56° C | 21% | 1025.9 hPa | 0 mm | - | - | - |
| 1777757095 | 16.11° C | 20% | 1025.9 hPa | 0 mm | - | - | - |
| 1777756556 | 16.11° C | 20% | 1025.7 hPa | 0 mm | - | - | - |
| 1777756015 | 16.67° C | 19% | 1025.8 hPa | 0 mm | - | - | - |
| 1777755475 | 16.67° C | 19% | 1025.6 hPa | 0 mm | - | - | - |
| 1777754935 | 16.67° C | 19% | 1025.7 hPa | 0 mm | - | - | - |
| 1777754396 | 17.22° C | 18% | 1025.5 hPa | 0 mm | - | - | - |
| 1777753855 | 17.22° C | 18% | 1025.6 hPa | 0 mm | - | - | - |
| 1777753315 | 17.78° C | 18% | 1025.5 hPa | 0 mm | - | - | - |
| 1777752775 | 17.78° C | 18% | 1025.6 hPa | 0 mm | - | - | - |
* Rain latest hour (hover to see other rain measurements)
** Current wind speed in m/s (hover to see current wind gust speed)